Date String (YYYY-MM-DD hh:mm:ss) UTC,Instrument flags,absolute air pressure of the measurement (hPa),sample flow rate (lpm),inlet stack bypass flow (lpm),air temperature of the measurement (°C),ambient temperature measured by the external sensor (°C),aerosol sample conditioner tube jacket temperature (°C),OPC LED temperature (°C),internal box temperature (°C),relative humidity of the measurement (%),span deviation,mass concentration of particles derived from Lorenz-Mie calculation of OPC scattering (μg/m³),mass concentration of particles derived from Lorenz-Mie calculation of OPC scattering (μg/m³),mass concentration of particles derived from Lorenz-Mie calculation of OPC scattering (μg/m³)
DateTimeUTC,F1_M11,P_M11,Q1_M11,Q2_M11,T1_M11,T2_M11,T3_M11,T4_M11,T5_M11,U1_M11,ZSPAN_M11,X0_M11,X2_M11,X1_M11
2023-09-12 13:00:00,SystemResetWarning,0834.5,5.01,000.00,028.8,027.3,000.0,037.2,030.4,28.6,-000.9,0014.26,0007.91,0007.39
2023-09-12 13:01:00,SystemResetWarning,0834.5,5.00,000.00,028.8,027.3,000.0,037.2,030.4,28.6,-000.7,0014.03,0007.95,0007.42
2023-09-12 13:02:00,SystemResetWarning,0834.5,5.00,000.00,028.9,027.3,000.0,037.2,030.4,28.7,-000.8,0014.13,0008.01,0007.46
2023-09-12 13:03:00,SystemResetWarning,0834.5,4.99,000.00,028.9,027.3,000.0,037.2,030.4,28.8,-000.8,0014.68,0008.05,0007.50
2023-09-12 13:04:00,SystemResetWarning,0834.5,4.99,000.00,028.9,027.3,000.0,037.2,030.4,28.8,-000.8,0014.97,0008.07,0007.54
2023-09-12 13:05:00,SystemResetWarning,0834.5,5.00,000.00,028.9,027.3,000.0,037.2,030.4,29.0,-000.7,0014.45,0008.09,0007.57
2023-09-12 13:06:00,SystemResetWarning,0834.5,5.00,000.00,028.9,027.3,000.0,037.2,030.4,29.0,-000.6,0014.82,0008.12,0007.61
2023-09-12 13:07:00,SystemResetWarning,0834.5,5.00,000.00,028.9,027.3,000.0,037.2,030.4,29.1,-000.4,0014.30,0008.11,0007.62
2023-09-12 13:08:00,SystemResetWarning,0834.5,5.01,000.00,028.9,027.3,000.0,037.2,030.4,29.2,-000.5,0014.49,0008.15,0007.65
2023-09-12 13:09:00,SystemResetWarning,0834.4,5.00,000.00,028.9,027.3,000.0,037.2,030.5,29.3,-000.4,0014.81,0008.17,0007.69
2023-09-12 13:10:00,SystemResetWarning,0834.5,5.00,000.00,028.9,027.3,000.0,037.2,030.4,29.3,-000.2,0014.57,0008.18,0007.72
2023-09-12 13:11:00,SystemResetWarning,0834.5,4.99,000.00,028.9,027.4,000.0,037.2,030.5,29.2,-000.3,0014.97,0008.24,0007.76
2023-09-12 13:12:00,SystemResetWarning,0834.5,5.00,000.00,028.9,027.4,000.0,037.2,030.5,29.2,-000.5,0015.12,0008.24,0007.78
2023-09-12 13:13:00,SystemResetWarning,0834.5,4.99,000.00,028.9,027.4,000.0,037.2,030.5,29.2,-000.7,0016.07,0008.27,0007.81
2023-09-12 13:14:00,SystemResetWarning,0834.5,5.00,000.00,028.9,027.4,000.0,037.2,030.5,29.2,-000.8,0016.18,0008.28,0007.83
2023-09-12 13:15:00,SystemResetWarning,0834.5,5.00,000.00,028.9,027.4,000.0,037.2,030.5,29.1,-000.7,0015.78,0008.31,0007.83
2023-09-12 13:16:00,SystemResetWarning,0834.5,5.00,000.00,028.9,027.4,000.0,037.2,030.5,28.9,-000.7,0016.07,0008.37,0007.86
2023-09-12 13:17:00,SystemResetWarning,0834.5,5.01,000.00,028.9,027.4,000.0,037.2,030.5,28.8,-000.8,0015.91,0008.42,0007.90
2023-09-12 13:18:00,SystemResetWarning,0834.5,5.00,000.00,028.9,027.4,000.0,037.2,030.5,28.7,-001.1,0015.97,0008.47,0007.93
2023-09-12 13:19:00,SystemResetWarning,0834.5,5.00,000.00,028.9,027.4,000.0,037.2,030.5,28.6,-001.2,0015.80,0008.51,0007.96
2023-09-12 13:20:00,SystemResetWarning,0834.5,5.00,000.00,028.9,027.4,000.0,037.3,030.5,28.3,-001.3,0015.77,0008.57,0007.97
2023-09-12 13:21:00,SystemResetWarning,0834.5,5.00,000.00,028.9,027.4,000.0,037.3,030.5,28.2,-001.3,0015.74,0008.62,0007.98
2023-09-12 13:22:00,SystemResetWarning,0834.5,5.00,000.00,028.9,027.5,000.0,037.3,030.5,28.1,-001.3,0015.56,0008.65,0008.02
2023-09-12 13:23:00,SystemResetWarning,0834.5,5.00,000.00,028.9,027.5,000.0,037.3,030.6,27.9,-001.3,0015.70,0008.66,0008.05
2023-09-12 13:24:00,SystemResetWarning,0834.5,5.00,000.00,028.9,027.5,000.0,037.3,030.6,27.7,-001.3,0015.15,0008.64,0008.06
2023-09-12 13:25:00,SystemResetWarning,0834.5,5.00,000.00,028.9,027.5,000.0,037.3,030.5,27.5,-001.0,0014.99,0008.69,0008.07
2023-09-12 13:26:00,SystemResetWarning,0834.5,5.00,000.00,029.0,027.5,000.0,037.3,030.6,27.0,-001.1,0015.06,0008.72,0008.10
2023-09-12 13:27:00,SystemResetWarning,0834.5,5.01,000.00,029.0,027.5,000.0,037.3,030.6,26.9,-001.0,0015.13,0008.73,0008.12
2023-09-12 13:28:00,SystemResetWarning,0834.5,5.01,000.00,029.0,027.5,000.0,037.3,030.6,26.8,-001.0,0014.98,0008.72,0008.11
2023-09-12 13:29:00,SystemResetWarning,0834.5,5.00,000.00,029.0,027.5,000.0,037.3,030.6,26.7,-000.8,0014.89,0008.71,0008.10
2023-09-12 13:30:00,SystemResetWarning,0834.5,5.00,000.00,029.0,027.6,000.0,037.3,030.6,26.6,-000.8,0014.72,0008.66,0008.08
2023-09-12 13:31:00,SystemResetWarning,0834.5,5.00,000.00,029.0,027.6,000.0,037.3,030.6,26.5,-000.9,0014.34,0008.61,0008.06
2023-09-12 13:32:00,SystemResetWarning,0834.5,4.99,000.00,029.0,027.6,000.0,037.3,030.6,26.2,-001.0,0014.22,0008.57,0008.05
2023-09-12 13:33:00,SystemResetWarning,0834.5,4.99,000.00,029.0,027.6,000.0,037.3,030.6,26.4,-001.3,0014.16,0008.54,0008.00
2023-09-12 13:34:00,SystemResetWarning,0834.5,5.00,000.00,029.0,027.6,000.0,037.3,030.7,26.3,-001.4,0013.91,0008.51,0007.96
2023-09-12 13:35:00,SystemResetWarning,0834.5,5.00,000.00,029.0,027.6,000.0,037.3,030.6,27.1,-001.2,0013.57,0008.50,0007.92
2023-09-12 13:36:00,SystemResetWarning,0834.5,5.00,000.00,029.0,027.6,000.0,037.3,030.7,26.9,-001.2,0013.31,0008.43,0007.88
2023-09-12 13:37:00,SystemResetWarning,0834.5,5.00,000.00,029.0,027.6,000.0,037.3,030.7,25.8,-001.2,0012.96,0008.35,0007.83
2023-09-12 13:38:00,SystemResetWarning,0834.5,5.00,000.00,029.0,027.6,000.0,037.3,030.7,26.4,-001.2,0013.58,0008.26,0007.77
2023-09-12 13:39:00,SystemResetWarning,0834.5,5.00,000.00,029.1,027.6,000.0,037.4,030.7,27.0,-001.4,0013.25,0008.21,0007.73
2023-09-12 13:40:00,SystemResetWarning,0834.5,5.00,000.00,029.1,027.7,000.0,037.4,030.7,26.3,-001.6,0013.26,0008.19,0007.69
2023-09-12 13:41:00,SystemResetWarning,0834.5,5.00,000.00,029.1,027.7,000.0,037.4,030.7,27.3,-001.7,0013.25,0008.20,0007.69
2023-09-12 13:42:00,SystemResetWarning,0834.5,5.00,000.00,029.1,027.7,000.0,037.4,030.7,27.8,-001.4,0013.28,0008.22,0007.68
2023-09-12 13:43:00,SystemResetWarning,0834.6,5.00,000.00,029.1,027.7,000.0,037.4,030.7,27.1,-001.3,0013.25,0008.21,0007.68
2023-09-12 13:44:00,SystemResetWarning,0835.1,5.00,000.00,029.1,027.7,000.0,037.4,030.7,26.1,-001.3,0013.16,0008.16,0007.67
2023-09-12 13:45:00,SystemResetWarning,0835.1,5.00,000.00,029.1,027.7,000.0,037.4,030.7,25.8,-001.5,0013.30,0008.16,0007.67
2023-09-12 13:46:00,SystemResetWarning,0835.0,5.01,000.00,029.1,027.7,000.0,037.4,030.7,26.3,-001.5,0014.00,0008.17,0007.67
2023-09-12 13:47:00,SystemResetWarning,0835.0,5.00,000.00,029.1,027.7,000.0,037.4,030.7,26.2,-001.6,0014.09,0008.17,0007.66
2023-09-12 13:48:00,SystemResetWarning,0835.1,5.00,000.00,029.1,027.7,000.0,037.4,030.7,25.8,-001.7,0014.10,0008.17,0007.65
2023-09-12 13:49:00,SystemResetWarning,0835.1,5.00,000.00,029.1,027.7,000.0,037.4,030.7,26.1,-001.6,0013.44,0008.18,0007.65
2023-09-12 13:50:00,SystemResetWarning,0835.0,5.00,000.00,029.1,027.8,000.0,037.4,030.7,26.7,-001.4,0014.06,0008.13,0007.60
2023-09-12 13:51:00,SystemResetWarning,0835.1,4.99,000.00,029.1,027.8,000.0,037.4,030.8,26.9,-001.2,0014.09,0008.08,0007.55
2023-09-12 13:52:00,SystemResetWarning,0835.1,5.00,000.00,029.2,027.8,000.0,037.5,030.8,26.8,-001.1,0013.91,0008.00,0007.48
2023-09-12 13:53:00,SystemResetWarning,0835.1,5.00,000.00,029.2,027.8,000.0,037.5,030.8,26.9,-001.5,0013.87,0007.94,0007.42
2023-09-12 13:54:00,SystemResetWarning,0835.1,5.00,000.00,029.2,027.8,000.0,037.5,030.8,26.8,-001.6,0013.82,0007.89,0007.36
2023-09-12 13:55:00,SystemResetWarning,0835.1,5.00,000.00,029.2,027.8,000.0,037.5,030.8,27.1,-001.6,0013.77,0007.82,0007.29
2023-09-12 13:56:00,SystemResetWarning,0835.0,5.00,000.00,029.2,027.8,000.0,037.5,030.8,26.3,-001.6,0013.63,0007.72,0007.21
2023-09-12 13:57:00,SystemResetWarning,0835.2,5.01,000.00,029.2,027.8,000.0,037.5,030.8,26.0,-001.6,0012.89,0007.64,0007.16
2023-09-12 13:58:00,SystemResetWarning,0834.9,5.00,000.00,029.2,027.9,000.0,037.5,030.8,26.4,-001.9,0012.70,0007.57,0007.12
2023-09-12 13:59:00,SystemResetWarning,0835.1,4.99,000.00,029.2,027.9,000.0,037.5,030.8,26.7,-001.8,0012.98,0007.51,0007.07
